This demonstration page uses our WeatherBlox Daily Observations layout. Learn more.

Left ArrowRight Arrow

30.21309, -93.2044

Hourly Observations for May 6, 2022

Temp ( °F °C ) Dew Point ( °F °C ) Humidity (%) Winds ( mph kmh ) Pressure ( in mb ) Visibility ( mi km ) Precip ( " mm )
12:15 am 00:15 Partly Cloudy with Light Rain 66 19 64 17.8 93 93 ESE 17 28 29.84 1010 10 16 0.02 0.51
12:35 am 00:35 Clear 67 19.4 64 18 92 92 S 10 17 29.83 1010 10 16 0.02 0.51
12:55 am 00:55 Clear 67 19.7 64 17.9 89 89 NW 13 20 29.83 1010 10 16 0.02 0.51
1:15 am 01:15 Clear 68 19.8 65 18.3 91 91 W 6 9 29.84 1010 10 16 0.00 0.00
1:35 am 01:35 Clear 68 19.9 65 18.4 91 91 WNW 6 9 29.84 1010 10 16 0.00 0.00
1:55 am 01:55 Clear 67 19.7 65 18.3 92 92 WNW 3 6 29.86 1011 10 16 0.00 0.00
2:15 am 02:15 Partly Cloudy 67 19.2 64 17.9 92 92 Calm 29.87 1012 10 16 0.00 0.00
2:35 am 02:35 Mostly Cloudy 66 18.9 64 17.9 94 94 ESE 3 6 29.89 1012 10 16 0.00 0.00
2:55 am 02:55 Partly Cloudy 65 18.3 63 17.4 95 95 SSE 6 9 29.89 1012 10 16 0.00 0.00
3:15 am 03:15 Partly Cloudy 64 17.9 63 17 95 95 SE 6 9 29.88 1012 10 16 0.00 0.00
3:35 am 03:35 Clear 65 18.2 63 17.3 95 95 SE 7 11 29.88 1012 10 16 0.00 0.00
3:55 am 03:55 Clear 65 18.4 64 17.5 95 95 SSE 6 9 29.87 1012 10 16 0.00 0.00
4:15 am 04:15 Clear 65 18.6 64 17.8 95 95 Calm 29.87 1012 10 16 0.00 0.00
4:35 am 04:35 Clear 64 17.7 62 16.7 94 94 SSE 5 7 29.88 1012 10 16 0.00 0.00
4:55 am 04:55 Clear 65 18.5 64 17.7 95 95 W 3 6 29.88 1012 10 16 0.00 0.00
5:15 am 05:15 Clear 65 18.3 63 17.4 95 95 N 3 6 29.88 1012 10 16 0.00 0.00
5:35 am 05:35 Clear with Mist and Fog 63 17.4 62 16.5 94 94 ESE 5 7 29.87 1012 3 4 0.00 0.00
6:00 am 06:00 Mostly Clear 64 18 63 17 94 94 SE 6 9 29.88 1012 10 16 0.00 0.00
6:50 am 06:50 Mostly Sunny 64 18 63 17 94 94 Calm 29.90 1013 7 11 0.00 0.00
7:50 am 07:50 Mostly Sunny 68 20 66 19 94 94 SSE 7 11 29.90 1013 7 11 0.00 0.00
8:47 am 08:47 Mostly Sunny 73 23 66 19 78 78 S 6 9 29.90 1013 10 16 0.00 0.00
9:49 am 09:49 Mostly Sunny 79 26 68 20 70 70 SSW 8 13 29.91 1013 10 16 0.00 0.00
10:52 am 10:52 Mostly Sunny 79 26 70 21 74 74 NNW 8 13 29.94 1014 10 16 0.00 0.00
11:50 am 11:50 Partly Cloudy 81 27 70 21 70 70 NNW 9 15 29.93 1014 10 16 0.00 0.00
12:50 pm 12:50 Mostly Sunny 82 28 66 19 58 58 NNW 8 13 29.91 1013 10 16 0.00 0.00
1:55 pm 13:55 Mostly Sunny 84 29 63 17 48 48 NW 8 13 29.89 1012 10 16 0.00 0.00
2:51 pm 14:51 Mostly Sunny 86 30 63 17 46 46 WNW 8 13 29.88 1012 10 16 0.00 0.00
3:45 pm 15:45 Mostly Sunny 88 31 57 14 35 35 W 10 17 29.86 1011 10 16 0.00 0.00
4:52 pm 16:52 Mostly Sunny 88 31 61 16 40 40 W 10 17 29.83 1010 10 16 0.00 0.00
5:45 pm 17:45 Mostly Sunny 88 31 63 17 43 43 WNW 9 15 29.82 1010 10 16 0.00 0.00
6:55 pm 18:55 Mostly Sunny 86 30 64 18 49 49 W 8 13 29.81 1009 10 16 0.00 0.00
7:50 pm 19:50 Mostly Sunny 82 28 70 21 66 66 WSW 9 15 29.81 1009 10 16 0.00 0.00
8:50 pm 20:50 Mostly Clear 77 25 73 23 89 89 WSW 9 15 29.82 1010 10 16 0.00 0.00
9:55 pm 21:55 Mostly Clear 75 24 73 23 94 94 Calm 29.84 1010 10 16 0.00 0.00
10:15 pm 22:15 Clear 76 24.5 73 22.9 91 91 SSW 7 11 29.84 1010 7 11 0.00 0.00
10:35 pm 22:35 Clear 76 24.5 73 22.9 91 91 SSW 6 9 29.84 1010 7 11 0.00 0.00
10:55 pm 22:55 Clear 76 24.3 73 22.8 91 91 SSW 6 9 29.84 1010 7 11 0.00 0.00
11:15 pm 23:15 Clear with Mist and Fog 74 23.3 72 22.1 93 93 Calm 29.85 1011 5 8 0.00 0.00
11:35 pm 23:35 Clear with Mist and Fog 74 23.3 72 22.3 94 94 Calm 29.85 1011 4 6 0.00 0.00
11:55 pm 23:55 Mostly Cloudy with Fog 72 22.1 70 21.2 95 95 Calm 29.85 1011 1 1 0.00 0.00

Powered by AerisWeather